Hourly Data Report for October 27, 2016

All times are specified in Local Standard Time (LST). Add 1 hour to adjust for Daylight Saving Time where and when it is observed.

KUGLUKTUK A
NUNAVUT

67°49'00.000" N
115°08'38.000" W
22.60 m
2300903
71938
YCO

Download Data

Hourly Data (October 2016)
Hourly Data Report for October 27, 2016
Temp Definition
°C
Dew Point Temp Definition
°C
Rel Hum Definition
%
Wind Dir Definition
10's deg

Wind Spd Definition
km/h
Visibility Definition
km
Stn Press Definition
kPa
Hmdx Definition


Wind Chill Definition


Weather Definition


TIME
00:00 Legend Double Dagger -2.5 -4.5 86 19 4 24.1 101.39   -4 LegendNANA
01:00 Legend Double Dagger -2.3 -4.5 85 29 3 16.1 101.41   -3 LegendNANA
02:00 Legend Double Dagger -2.9 -4.5 89 18 4 16.1 101.39   -4 Cloudy
03:00 Legend Double Dagger -1.7 -4.4 82 15 4 24.1 101.37   -3 LegendNANA
04:00 Legend Double Dagger -2.2 -4.4 85 36 1 24.1 101.40   -3 LegendNANA
05:00 Legend Double Dagger -2.7 -4.3 89 22 10 24.1 101.40   -7 Cloudy
06:00 Legend Double Dagger -2.4 -4.3 87 36 2 24.1 101.44   -3 LegendNANA
07:00 Legend Double Dagger -2.4 -4.4 86 27 5 24.1 101.44   -4 LegendNANA
08:00 Legend Double Dagger -2.3 -4.5 85 23 4 24.1 101.42   -4 Cloudy
09:00 Legend Double Dagger -1.8 -4.5 82 29 4 24.1 101.46   -3 LegendNANA
10:00 Legend Double Dagger -2.6 -4.2 89 19 6 24.1 101.45   -5 LegendNANA
11:00 Legend Double Dagger -2.0 -3.7 88 21 5 24.1 101.46   -4 Cloudy
12:00 Legend Double Dagger -1.9 -3.5 89 21 6 24.1 101.48   -4 LegendNANA
13:00 Legend Double Dagger -1.0 -3.4 84 20 8 24.1 101.50   -4 Freezing Drizzle
14:00 Legend Double Dagger -1.2 -3.4 85 22 15 16.1 101.51   -6 Snow Grains
15:00 Legend Double Dagger -1.6 -4.0 84 19 13 19.3 101.51   -6 Snow Grains
16:00 Legend Double Dagger -1.7 -3.9 85 20 11 19.3 101.48   -6 Snow Grains
17:00 Legend Double Dagger -2.2 -4.4 85 19 17 19.3 101.46   -8 Snow Grains
18:00 Legend Double Dagger -2.5 -4.5 86 19 10 19.3 101.42   -6 Snow Grains
19:00 Legend Double Dagger -2.5 -4.1 89 21 7 19.3 101.40   -5 Snow Grains
20:00 Legend Double Dagger -1.9 -3.8 87 18 16 16.1 101.32   -7 Snow Grains
21:00 Legend Double Dagger -1.4 -3.4 86 21 13 24.1 101.30   -6 Snow Grains
22:00 Legend Double Dagger -1.1 -3.3 85 22 15 24.1 101.24   -6 Snow Grains
23:00 Legend Double Dagger -0.5 -2.6 86 21 21 24.1 101.20   -6 Snow Grains

Notes on Data Quality.

Legend

  • E = Estimated
  • M = Missing
  • NA = Not Available
  • ‡ = Partner data that is not subject to review by the National Climate Archives
Date modified: